{"data":{"norad_id":57756,"intl_designator":"2023-133A","name":"WILDFIRE 4","alt_names":[],"object_type":"PAYLOAD","status":"ACTIVE","operator":null,"country":"US","launch_date":"2023-09-02","launch_site_code":"AFWTR","launch_vehicle":null,"mission":null,"orbit_class":"UNKNOWN","rcs_meters":null,"size_class":null,"mass_kg":null,"dimensions":null,"purposes":[],"wikipedia_slug":null,"has_3d_model":false,"image_url":null,"decayed_at":null,"tle_current":{"epoch":"2026-09-22T11:57:19.893024Z","epoch_age_seconds":133620,"freshness":"FRESH","line1":"1 57756U 23133A   26265.49814691  .00000069  00000+0  49714-4 0  9998","line2":"2 57756  80.9982 272.6163 0011058  92.6158 267.6265 13.86373636154607","mean_motion":13.86373636,"eccentricity":0.0011058,"inclination_deg":80.9982,"raan_deg":272.6163,"arg_perigee_deg":92.6158,"mean_anomaly_deg":267.6265,"bstar":4.9714e-5,"rev_number":15460,"period_min":103.86810327371,"perigee_km":933.27300587038,"apogee_km":949.46082072503,"semimajor_km":7319.5039132977,"source":"CELESTRAK","updated_at":"2026-09-23T09:00:18.336581Z"}}}